Flag for United Kingdom Weather past 2 weeks in Glasgow, Scotland, United Kingdom

Now
72 °F

Partly sunny.


Feels Like: 75 °F
Forecast: 61 / 76 °F
Wind: 10 mph from South

Location: Glasgow Airport

Current Time: Jun 30, 2015 at 4:16:55 PM

Latest Report: Jun 30, 2015 at 3:20 PM


Visibility: N/A

Pressure: 29.98 "Hg

Humidity: 65%

Dew point: 59 °F

Location of GlasgowLocation

Historic Weather in Glasgow — Graph

°F

Glasgow temperature yesterday

Maximum temperature yesterday: 64 °F (at 2:20 PM)
Minimum temperature yesterday: 54 °F (at 12:20 AM)
Average temperature yesterday: 59 °F

Past Weeks' High & Low Weather Summary

 TemperatureHumidityPressure
High72 °F (Jun 30, 1:20 PM)100% (Jun 16, 2:50 AM)30.21 "Hg (Jun 16, 2:50 AM)
Low39 °F (Jun 23, 3:50 AM)52% (Jun 23, 5:20 PM)29.77 "Hg (Jun 22, 3:50 AM)
Average56 °F82%30.01 "Hg
* Reported Jun 15 2:20 PM — Jun 30 2:50 PM, Glasgow, Weather by CustomWeather, © 2015

Note: Actual official high and low records may vary slightly from our data, if they occured in-between our weather recording intervals... More about our weather records

Advertising

Glasgow weather history for previous 24 hours

 ConditionsComfort  
Time TempWeatherWind HumidityBarometerVisibility
2:50 PM
Tue, Jun 30
72 °FPartly sunny.7 mph65%29.98 "HgN/A
1:50 PM70 °FBroken clouds.10 mph78%29.98 "HgN/A
1:20 PM72 °FBroken clouds.8 mph73%29.98 "HgN/A
12:50 PM66 °FPartly sunny.8 mph83%30.01 "HgN/A
12:20 PM66 °FPartly sunny.14 mph83%29.98 "HgN/A
11:50 AM66 °FPartly sunny.12 mph83%29.98 "HgN/A
11:20 AM66 °FPartly sunny.2 mph88%29.98 "HgN/A
10:50 AM64 °FPartly sunny.3 mph88%29.98 "HgN/A
10:20 AM66 °FPartly sunny.3 mph83%29.98 "HgN/A
9:50 AM64 °FPartly sunny.3 mph88%29.98 "HgN/A
9:20 AM64 °FPartly sunny.5 mph88%29.98 "HgN/A
8:50 AM63 °FPartly sunny.3 mph88%29.98 "HgN/A
8:20 AM63 °FPartly sunny.5 mph88%29.98 "HgN/A
7:50 AM63 °FPartly sunny.5 mph88%29.98 "HgN/A
7:20 AM63 °FOvercast.5 mph83%29.98 "HgN/A
6:50 AM61 °FOvercast.6 mph88%29.98 "HgN/A
6:20 AM59 °FOvercast.2 mph94%29.98 "HgN/A
5:50 AM59 °FOvercast.3 mph94%29.98 "HgN/A
5:20 AM57 °FOvercast.5 mph94%29.98 "HgN/A
4:50 AM57 °FLight rain. Overcast.6 mph94%29.98 "HgN/A
4:20 AM57 °FLight rain. Overcast.6 mph94%30.01 "Hg4 mi
3:50 AM57 °FOvercast.6 mph88%30.01 "HgN/A
3:20 AM57 °FLight rain. Overcast.5 mph88%30.01 "Hg4 mi
2:50 AM57 °FOvercast.5 mph88%30.01 "HgN/A
2:20 AM57 °FOvercast.5 mph82%30.04 "HgN/A
1:50 AM57 °FOvercast.6 mph82%30.04 "HgN/A
1:20 AM59 °FOvercast.7 mph77%30.04 "HgN/A
12:50 AM59 °FLight rain. Partly cloudy.8 mph77%30.04 "HgN/A
12:20 AM59 °FOvercast.7 mph82%30.04 "HgN/A
11:50 PM
Mon, Jun 29
59 °FClear.6 mph82%30.07 "Hg10 mi
11:20 PM59 °FClear.3 mph82%30.07 "Hg10 mi
10:20 PM61 °FCool.5 mph77%30.07 "HgN/A
9:50 PM61 °FSunny.7 mph72%30.07 "Hg10 mi
9:20 PM61 °FPassing clouds.8 mph77%30.07 "HgN/A
8:50 PM61 °FPassing clouds.9 mph77%30.07 "HgN/A
8:20 PM61 °FLight rain. Scattered clouds.8 mph77%30.07 "HgN/A
7:50 PM63 °FLight rain. Scattered clouds.9 mph73%30.07 "HgN/A
7:20 PM63 °FLight rain. Scattered clouds.8 mph73%30.07 "HgN/A
6:50 PM63 °FLight rain. Scattered clouds.10 mph73%30.07 "HgN/A
6:20 PM63 °FLight rain. Scattered clouds.10 mph73%30.07 "HgN/A
5:50 PM64 °FScattered clouds.9 mph68%30.07 "HgN/A
5:20 PM64 °FScattered clouds.8 mph68%30.07 "HgN/A
4:50 PM64 °FBroken clouds.12 mph68%30.07 "HgN/A
4:20 PM64 °FBroken clouds.12 mph68%30.07 "HgN/A
Weather by CustomWeather, © 2015

See weather overviewHow to use our weather pages